Bolton Field, OH

11:46 PM EDT on July 27, 2017 (GMT -0400)
Bolton

Weather History for KTZR - February, 2013

Change the Weather History Date:

Wednesday, February 27, 2013

  Actual Average Record
Temperature  
Mean Temperature 37 °F -  
Max Temperature 42 °F 42 °F 64 °F (1998)
Min Temperature 32 °F 28 °F 0 °F (2015)
Degree Days  
Heating Degree Days 28    
Moisture  
Dew Point 36 °F    
Average Humidity 93    
Maximum Humidity 98    
Minimum Humidity 81    
Precipitation  
Precipitation 0.09 in - - ()
Sea Level Pressure  
Sea Level Pressure 29.60 in    
Wind  
Wind Speed 14 mph (SSW)    
Max Wind Speed 20 mph    
Max Gust Speed 28 mph    
Visibility 9 miles    
Events Rain    
Averages and records for this station are not official NWS values.
T = Trace of Precipitation, MM = Missing Value Source: NWS Daily Summary

Daily Weather History Graph

Daily Weather History Graph

Search for Another Location

Airport or City:

Trip Planner

Search our weather history database for the weather conditions in past years. The results will help you decide how hot, cold, wet, or windy it might be!

Date:

Astronomy

Feb. 27, 2013 Rise Set
Actual Time 7:08 AM EST 6:22 PM EST
Civil Twilight 6:41 AM EST 6:49 PM EST
Nautical Twilight 6:09 AM EST 7:21 PM EST
Astronomical Twilight 5:38 AM EST 7:52 PM EST
Moon 8:42 PM EST (2/27) 7:43 AM EST (2/27)
Length of Visible Light 12h 08m
Length of Day
11h 14m
Waning Gibbous, 96% of the Moon is Illuminated
Feb 27
Waning Gibbous
Mar 4
Last Quarter
Mar 11
New
Mar 19
First Quarter
Mar 27
Full

Hourly Weather History & Observations

Time (EST) Temp. Windchill Dew Point Humidity Pressure Visibility Wind Dir Wind Speed Gust Speed Precip Events Conditions
12:15 AM 42.4 °F 35.7 °F 40.6 °F 93% 29.49 in 10.0 mi SSW 12.7 mph - N/A   Overcast
12:35 AM 42.3 °F 35.1 °F 40.8 °F 95% 29.49 in 10.0 mi SSW 13.8 mph 19.6 mph N/A   Light Drizzle
12:55 AM 41.9 °F 35.0 °F 40.6 °F 95% 29.49 in 10.0 mi SSW 12.7 mph - N/A Rain Light Rain
1:15 AM 41.4 °F 33.0 °F 40.1 °F 95% 29.50 in 10.0 mi SSW 17.3 mph 21.9 mph N/A   Light Drizzle
1:35 AM 41.0 °F 32.2 °F 39.2 °F 93% 29.51 in 10.0 mi SSW 18.4 mph - N/A   Overcast
1:55 AM 40.6 °F 33.0 °F 39.2 °F 95% 29.52 in 10.0 mi SW 13.8 mph - N/A Rain Light Rain
2:15 AM 40.3 °F 32.2 °F 39.2 °F 96% 29.52 in 10.0 mi SW 15.0 mph 21.9 mph 0.02 in Rain Light Rain
2:35 AM 40.1 °F 31.6 °F 39.2 °F 97% 29.52 in 7.0 mi SW 16.1 mph 19.6 mph 0.05 in Rain Light Rain
2:55 AM 40.1 °F 32.0 °F 38.5 °F 94% 29.52 in 10.0 mi SSW 15.0 mph - 0.07 in Rain Light Rain
3:15 AM 39.7 °F 31.9 °F 38.5 °F 95% 29.52 in 10.0 mi SSW 13.8 mph 18.4 mph 0.01 in Rain Light Rain
3:35 AM 39.6 °F 32.1 °F 38.5 °F 96% 29.53 in 10.0 mi SSW 12.7 mph 21.9 mph 0.01 in Rain Light Rain
3:55 AM 39.4 °F 31.8 °F 38.5 °F 97% 29.53 in 10.0 mi SSW 12.7 mph - 0.02 in Rain Light Rain
4:35 AM 39.4 °F 31.8 °F 37.2 °F 92% 29.54 in 10.0 mi SW 12.7 mph - N/A   Overcast
4:55 AM 39.2 °F 31.2 °F 37.0 °F 92% 29.55 in 10.0 mi SSW 13.8 mph 19.6 mph N/A   Overcast
5:15 AM 39.2 °F 31.2 °F 36.7 °F 91% 29.56 in 10.0 mi SSW 13.8 mph 20.7 mph N/A   Overcast
5:35 AM 38.7 °F 30.5 °F 36.7 °F 93% 29.56 in 10.0 mi SSW 13.8 mph - N/A   Overcast
5:55 AM 38.3 °F 30.1 °F 36.3 °F 93% 29.56 in 10.0 mi SSW 13.8 mph 24.2 mph N/A   Light Drizzle
6:15 AM 37.4 °F 29.8 °F 35.8 °F 94% 29.57 in 10.0 mi SSW 11.5 mph - N/A   Overcast
6:35 AM 37.6 °F 30.0 °F 36.0 °F 94% 29.57 in 10.0 mi SSW 11.5 mph - N/A   Overcast
6:55 AM 37.8 °F 29.0 °F 35.8 °F 93% 29.59 in 10.0 mi SSW 15.0 mph - N/A   Overcast
7:15 AM 37.9 °F 29.6 °F 36.0 °F 93% 29.59 in 10.0 mi SSW 13.8 mph - N/A   Overcast
7:47 AM 37.4 °F 29.3 °F 35.6 °F 93% 29.61 in 10.0 mi SSW 12.7 mph 21.9 mph N/A   Overcast
8:50 AM 39.2 °F 31.6 °F 37.4 °F 93% 29.63 in 10.0 mi SSW 12.7 mph - N/A   Overcast
9:50 AM 39.2 °F 31.6 °F 37.4 °F 93% 29.64 in 10.0 mi SSW 12.7 mph - N/A   Overcast
10:47 AM 39.2 °F 29.8 °F 35.6 °F 87% 29.64 in 10.0 mi SSW 18.4 mph - N/A   Overcast
11:50 AM 39.2 °F 30.8 °F 35.6 °F 87% 29.64 in 10.0 mi SSW 15.0 mph 25.3 mph N/A   Overcast
12:50 PM 37.4 °F 27.8 °F 35.6 °F 93% 29.64 in 10.0 mi SW 17.3 mph 23.0 mph N/A   Overcast
1:50 PM 37.4 °F 27.2 °F 35.6 °F 93% 29.63 in 10.0 mi SW 19.6 mph 27.6 mph N/A   Overcast
2:50 PM 35.6 °F 25.5 °F 33.8 °F 93% 29.63 in 10.0 mi SW 17.3 mph - N/A   Overcast
3:50 PM 35.6 °F 25.9 °F 32.0 °F 87% 29.65 in 10.0 mi SW 16.1 mph 23.0 mph N/A   Overcast
4:50 PM 35.6 °F 26.6 °F 32.0 °F 87% 29.66 in 10.0 mi SW 13.8 mph 20.7 mph N/A   Overcast
5:50 PM 35.6 °F 26.6 °F 30.2 °F 81% 29.68 in 10.0 mi SW 13.8 mph - N/A   Overcast
6:50 PM 33.8 °F 24.8 °F 30.2 °F 87% 29.69 in 7.0 mi SW 12.7 mph 23.0 mph N/A   Overcast
8:35 PM 32.9 °F 23.2 °F 31.6 °F 95% 29.69 in 7.0 mi SW 13.8 mph 21.9 mph N/A   Overcast
9:15 PM 32.5 °F 22.3 °F 31.8 °F 97% 29.69 in 7.0 mi SSW 15.0 mph - N/A   Overcast
9:35 PM 32.9 °F 23.7 °F 31.6 °F 95% 29.68 in 7.0 mi SSW 12.7 mph - N/A   Overcast
9:55 PM 32.9 °F 23.2 °F 31.8 °F 96% 29.68 in 7.0 mi SSW 13.8 mph 18.4 mph N/A   Overcast
10:15 PM 32.9 °F 23.2 °F 31.8 °F 96% 29.68 in 7.0 mi SSW 13.8 mph 18.4 mph N/A   Overcast
10:35 PM 32.5 °F 23.7 °F 32.0 °F 98% 29.68 in 7.0 mi SSW 11.5 mph - N/A   Overcast
10:55 PM 32.5 °F 23.2 °F 32.0 °F 98% 29.67 in 7.0 mi SSW 12.7 mph - N/A   Overcast
11:15 PM 32.7 °F 23.9 °F 31.8 °F 96% 29.67 in 10.0 mi SSW 11.5 mph - N/A   Overcast
11:35 PM 32.5 °F 23.2 °F 31.8 °F 97% 29.67 in 10.0 mi SW 12.7 mph 18.4 mph N/A   Overcast
11:55 PM 32.4 °F 23.0 °F 31.8 °F 98% 29.66 in 7.0 mi SW 12.7 mph - N/A   Overcast